This is the latest recevied weather packets stored in our database for station/object K4PAD. If no packets are shown the sender has not sent any weather packets the latest 10 day(s).
| Time | Temp. | Humidity | Pressure | Rain* | Wind** | Luminosity | Snow |
|---|---|---|---|---|---|---|---|
| 1788528146 | 27.22° C | 95% | 1017 hPa | 0 mm | - | 175 W/m² | - |
| 1788527844 | 27.22° C | 96% | 1017.2 hPa | 0 mm | - | 151 W/m² | - |
| 1788527540 | 27.22° C | 96% | 1017.2 hPa | 0 mm | - | 136 W/m² | - |
| 1788527235 | 27.22° C | 97% | 1017.4 hPa | 0 mm | - | 107 W/m² | - |
| 1788526934 | 27.22° C | 98% | 1017.2 hPa | 0 mm | - | 84 W/m² | - |
| 1788526631 | 27.22° C | 98% | 1017 hPa | 0 mm | - | 93 W/m² | - |
| 1788526326 | 27.22° C | 99% | 1017.1 hPa | 0 mm | - | 169 W/m² | - |
| 1788526021 | 26.67° C | 99% | 1017.1 hPa | 0 mm | - | 169 W/m² | - |
| 1788525716 | 26.67° C | 99% | 1017.2 hPa | 0 mm | - | 197 W/m² | - |
| 1788525411 | 26.11° C | 99% | 1016.9 hPa | 0 mm | - | 162 W/m² | - |
| 1788525106 | 25.56° C | 99% | 1017 hPa | 0 mm | - | 86 W/m² | - |
| 1788524801 | 25.56° C | 99% | 1017 hPa | 0 mm | - | 97 W/m² | - |
| 1788524496 | 25.56° C | 99% | 1016.7 hPa | 0 mm | - | 74 W/m² | - |
| 1788524191 | 25° C | 99% | 1016.9 hPa | 0 mm | - | 66 W/m² | - |
| 1788523887 | 25° C | 99% | 1016.9 hPa | 0 mm | - | 56 W/m² | - |
| 1788523606 | 25° C | 99% | 1016.9 hPa | 0 mm | - | 48 W/m² | - |
| 1788523279 | 25° C | 99% | 1016.8 hPa | 0 mm | - | 39 W/m² | - |
| 1788522979 | 25° C | 99% | 1016.8 hPa | 0 mm | - | 32 W/m² | - |
| 1788522674 | 25° C | 99% | 1016.5 hPa | 0 mm | - | 29 W/m² | - |
| 1788522368 | 25° C | 99% | 1016.7 hPa | 0 mm | - | 30 W/m² | - |
| 1788522063 | 25° C | 99% | 1016.7 hPa | 0 mm | - | 29 W/m² | - |
| 1788521762 | 25° C | 99% | 1016.7 hPa | 0 mm | - | 24 W/m² | - |
| 1788521456 | 25° C | 99% | 1016.5 hPa | 0 mm | - | 18 W/m² | - |
| 1788521152 | 24.44° C | 99% | 1016.6 hPa | 0 mm | - | 11 W/m² | - |
| 1788520848 | 24.44° C | 99% | 1016.6 hPa | 0 mm | - | 7 W/m² | - |
* Rain latest hour (hover to see other rain measurements)
** Current wind speed in m/s (hover to see current wind gust speed)